Latest Weather Observations for Lochington

IDQ60801

Issued at 6:32 am EST Tuesday 9 February 2016 (issued every 30 minutes, with the page automatically refreshed every 10 minutes)

About weather observations | Map of weather stations | Latest weather observations for QLD | Other Formats
Station Details ID: 035139 Name: LOCHINGTON Lat: -23.94 Lon: 147.53 Height: 267.19 m
Data from the previous 72 hours. | See also: Recent months at Lochington
Date/Time
EST
Temp
°C
App
Temp
°C
Dew
Point
Rel
Hum
%
Delta-T
°C
Wind Press
QNH
hPa
Press
MSL
hPa
Rain
since 9 am
mm
Dir
 
Spd
km/h
Gust
km/h
Spd
kts
Gust
kts
09/06:30am 22.3 25.3 20.9 92 0.9 E 6 9 3 5 1014.1 1012.3 0.6
09/06:00am 21.7 24.6 20.7 94 0.7 ESE 6 7 3 4 1013.6 1011.8 0.6
09/05:30am 21.7 24.7 20.0 90 1.1 ENE 4 6 2 3 1012.9 1011.1 0.6
09/05:00am 21.8 24.8 20.1 90 1.1 ENE 4 4 2 2 1012.6 1010.8 0.6
09/04:30am 22.0 24.7 20.3 90 1.1 NE 6 6 3 3 1012.4 1010.6 0.6
09/04:00am 22.3 24.5 20.4 89 1.2 NE 9 11 5 6 1012.1 1010.4 0.6
09/03:30am 22.5 24.7 20.4 88 1.4 NE 9 13 5 7 1012.0 1010.3 0.6
09/03:00am 22.6 24.7 20.1 86 1.6 ENE 9 13 5 7 1011.8 1010.1 0.6
09/02:30am 22.6 24.7 20.1 86 1.6 E 9 13 5 7 1011.7 1010.0 0.6
09/02:00am 23.2 25.4 20.5 85 1.8 ENE 9 13 5 7 1011.8 1010.1 0.6
09/01:30am 23.1 26.3 20.4 85 1.8 E 4 13 2 7 1011.9 1010.2 0.6
09/01:00am 23.7 26.8 20.2 81 2.3 E 4 4 2 2 1011.9 1010.2 0.6
09/12:30am 23.7 26.8 21.0 85 1.8 NE 6 7 3 4 1012.3 1010.5 0.6
09/12:00am 24.1 28.4 21.2 84 1.9 CALM 0 0 0 0 1012.6 1010.8 0.6
 
Date/Time
EST
Temp
°C
App
Temp
°C
Dew
Point
Rel
Hum
%
Delta-T
°C
Wind Press
QNH
hPa
Press
MSL
hPa
Rain
since 9 am
mm
Dir
 
Spd
km/h
Gust
km/h
Spd
kts
Gust
kts
08/11:30pm 23.9 28.5 21.8 88 1.4 CALM 0 0 0 0 1012.8 1011.0 0.6
08/11:00pm 23.6 28.2 21.7 89 1.3 CALM 0 0 0 0 1013.0 1011.2 0.6
08/10:30pm 23.5 28.0 21.6 89 1.3 CALM 0 0 0 0 1013.0 1011.2 0.6
08/10:00pm 24.3 28.6 22.0 87 1.5 WSW 2 6 1 3 1013.0 1011.2 0.6
08/09:30pm 24.7 29.6 22.4 87 1.6 CALM 0 0 0 0 1012.9 1011.1 0.6
08/09:00pm 25.0 29.6 21.7 82 2.2 CALM 0 0 0 0 1012.9 1011.1 0.6
08/08:30pm 25.5 30.1 21.8 80 2.5 CALM 0 0 0 0 1012.9 1011.1 0.6
08/08:00pm 25.4 29.7 21.9 81 2.4 SE 2 4 1 2 1012.6 1010.8 0.6
08/07:30pm 25.7 30.2 22.2 81 2.4 ESE 2 2 1 1 1012.1 1010.4 0.6
08/07:00pm 26.4 31.5 22.7 80 2.5 CALM 0 0 0 0 1012.0 1010.3 0.6
08/06:30pm 27.1 30.9 20.9 69 4.1 NNE 2 4 1 2 1011.7 1010.0 0.6
08/06:00pm 26.7 30.1 21.0 71 3.8 N 4 6 2 3 1011.4 1009.7 0.6
08/05:30pm 26.6 29.4 20.4 69 4.1 N 6 9 3 5 1011.2 1009.5 0.6
08/05:00pm 25.7 28.2 21.1 76 3.1 NNE 9 13 5 7 1010.9 1009.1 0.6
08/04:30pm 28.2 30.2 20.0 61 5.4 ESE 9 13 5 7 1010.9 1009.1 0.6
08/04:00pm 28.3 30.8 20.3 62 5.3 SSE 7 9 4 5 1010.9 1009.1 0.6
08/03:30pm 28.4 30.0 19.9 60 5.6 SE 11 17 6 9 1010.9 1009.1 0.6
08/03:00pm 28.6 29.8 19.8 59 5.8 SE 13 17 7 9 1011.2 1009.5 0.6
08/02:30pm 28.3 29.1 19.8 60 5.6 SE 15 20 8 11 1011.7 1010.0 0.6
08/02:00pm 27.7 30.2 21.7 70 4.1 SE 11 24 6 13 1012.3 1010.5 0.6
08/01:30pm 25.0 28.7 21.5 81 2.3 ESE 4 13 2 7 1012.8 1011.0 0.6
08/01:00pm 28.1 31.1 20.9 65 4.8 ESE 6 9 3 5 1013.0 1011.2 0.0
08/12:30pm 27.2 30.0 20.8 68 4.3 E 7 13 4 7 1013.5 1011.7 0.0
08/12:00pm 26.3 28.8 21.1 73 3.5 SE 9 13 5 7 1013.9 1012.1 0.0
08/11:30am 26.1 27.8 20.9 73 3.5 SE 13 20 7 11 1014.2 1012.4 0.0
08/11:00am 25.7 28.1 20.9 75 3.2 SE 9 17 5 9 1014.3 1012.5 0.0
08/10:30am 25.6 27.9 21.3 77 2.9 SE 11 17 6 9 1014.6 1012.9 0.0
08/10:00am 24.5 25.5 20.2 77 2.8 SE 15 19 8 10 1014.7 1013.0 0.0
08/09:30am 24.0 25.8 21.1 84 1.9 ESE 13 20 7 11 1014.7 1013.0 0.0
08/09:00am 23.3 24.6 20.8 86 1.6 ESE 15 22 8 12 1014.7 1013.0 15.4
08/08:30am 22.8 23.1 20.5 87 1.5 ESE 19 24 10 13 1014.5 1012.8 15.4
08/08:00am 22.6 23.8 20.7 89 1.2 ESE 15 22 8 12 1014.3 1012.5 15.4
08/07:30am 22.3 23.5 20.6 90 1.1 ESE 15 26 8 14 1014.0 1012.2 15.4
08/07:00am 22.2 23.8 20.7 91 1.0 ESE 13 19 7 10 1013.9 1012.1 15.4
08/06:30am 21.6 23.8 20.4 93 0.8 ESE 9 15 5 8 1013.6 1011.8 15.4
08/06:00am 21.8 24.0 20.3 91 1.0 ESE 9 15 5 8 1013.4 1011.6 15.4
08/05:30am 21.9 23.7 20.4 91 1.0 ESE 11 19 6 10 1013.2 1011.4 15.4
08/05:00am 21.8 23.7 20.6 93 0.8 ESE 11 20 6 11 1013.0 1011.2 15.4
08/04:30am 21.9 23.9 20.7 93 0.8 ESE 11 19 6 10 1012.9 1011.1 15.4
08/04:00am 21.9 23.5 20.7 93 0.8 ESE 13 17 7 9 1012.7 1010.9 15.4
08/03:30am 21.8 23.7 20.6 93 0.8 ESE 11 17 6 9 1012.4 1010.6 15.4
08/03:00am 21.9 23.8 20.5 92 0.9 ESE 11 17 6 9 1012.4 1010.6 15.2
08/02:30am 22.2 24.2 20.8 92 0.9 SE 11 19 6 10 1012.6 1010.8 15.2
08/02:00am 22.2 24.2 20.8 92 0.9 SE 11 17 6 9 1012.7 1010.9 15.2
08/01:30am 22.2 23.9 21.0 93 0.8 ESE 13 20 7 11 1012.9 1011.1 15.2
08/01:00am 22.3 24.6 21.3 94 0.7 ESE 11 19 6 10 1013.1 1011.3 15.2
08/12:30am 22.3 24.3 21.5 95 0.5 ESE 13 20 7 11 1013.5 1011.7 15.2
08/12:00am 22.2 24.6 21.5 96 0.5 SE 11 17 6 9 1013.7 1011.9 15.2
 
Date/Time
EST
Temp
°C
App
Temp
°C
Dew
Point
Rel
Hum
%
Delta-T
°C
Wind Press
QNH
hPa
Press
MSL
hPa
Rain
since 9 am
mm
Dir
 
Spd
km/h
Gust
km/h
Spd
kts
Gust
kts
07/11:30pm 22.2 24.3 21.7 97 0.3 SE 13 19 7 10 1013.7 1011.9 15.0
07/11:00pm 22.3 24.1 21.8 97 0.3 SE 15 22 8 12 1013.7 1011.9 14.2
07/10:30pm 22.5 26.1 22.0 97 0.3 SSE 6 9 3 5 1013.8 1012.0 8.6
07/10:00pm 22.8 24.6 21.8 94 0.7 ESE 15 24 8 13 1013.5 1011.7 5.4
07/09:30pm 23.3 25.9 21.9 92 0.9 ESE 11 17 6 9 1013.2 1011.4 5.0
07/09:00pm 23.4 26.9 22.2 93 0.8 ESE 7 13 4 7 1012.9 1011.1 5.0
07/08:30pm 23.7 27.8 23.0 96 0.5 S 6 7 3 4 1012.6 1010.8 5.0
07/08:00pm 23.8 28.7 23.1 96 0.5 S 2 6 1 3 1012.3 1010.5 5.0
07/07:30pm 23.8 28.7 23.1 96 0.5 SSE 2 4 1 2 1011.7 1010.0 5.0
07/07:00pm 23.7 28.6 23.0 96 0.5 SSW 2 4 1 2 1011.3 1009.6 5.0
07/06:30pm 23.7 27.8 22.9 95 0.5 SSE 6 9 3 5 1011.0 1009.2 5.0
07/06:00pm 23.8 28.3 23.0 95 0.5 SSE 4 7 2 4 1010.6 1008.8 4.8
07/05:30pm 23.9 28.4 22.9 94 0.7 SE 4 4 2 2 1010.3 1008.5 3.8
07/05:00pm 24.0 29.1 22.6 92 0.9 CALM 0 2 0 1 1010.0 1008.2 2.8
07/04:30pm 24.5 29.7 22.9 91 1.1 CALM 0 2 0 1 1009.8 1008.0 1.2
07/04:00pm 24.7 29.2 22.2 86 1.7 NW 2 4 1 2 1009.7 1007.9 1.0
07/03:30pm 25.5 28.9 21.6 79 2.6 E 6 9 3 5 1009.7 1007.9 0.2
07/03:00pm 26.4 29.5 21.4 74 3.4 E 7 13 4 7 1009.6 1007.8 0.2
07/02:30pm 26.8 30.0 21.6 73 3.5 ESE 7 11 4 6 1009.9 1008.1 0.2
07/02:00pm 26.2 29.2 21.2 74 3.3 ENE 7 13 4 7 1010.1 1008.3 0.2
07/01:30pm 25.6 29.0 21.7 79 2.6 ENE 6 9 3 5 1010.5 1008.7 0.2
07/01:00pm 24.5 27.7 21.2 82 2.2 NE 6 9 3 5 1010.8 1009.0 0.2
07/12:30pm 24.4 28.0 21.3 83 2.1 E 4 9 2 5 1011.0 1009.2 0.2
07/12:00pm 23.1 26.8 21.4 90 1.1 E 4 7 2 4 1011.3 1009.6 0.2
07/11:30am 22.6 26.2 21.2 92 0.9 NE 4 9 2 5 1011.5 1009.8 0.2
07/11:00am 22.4 25.3 20.7 90 1.1 NE 6 9 3 5 1011.7 1010.0 0.2
07/10:30am 22.7 25.1 20.8 89 1.3 E 9 17 5 9 1011.7 1010.0 0.0
07/10:00am 22.4 24.6 20.3 88 1.4 E 9 15 5 8 1011.6 1009.9 0.0
07/09:30am 22.2 24.4 20.3 89 1.2 ESE 9 15 5 8 1011.5 1009.8 0.0
07/09:00am 21.5 23.3 20.3 93 0.8 ESE 11 19 6 10 1011.4 1009.7 36.6
07/08:30am 20.9 23.3 20.1 95 0.5 ESE 7 11 4 6 1011.3 1009.6 36.6
07/08:00am 20.6 23.0 20.1 97 0.3 ESE 7 11 4 6 1011.2 1009.5 36.6
07/07:30am 20.4 22.7 19.9 97 0.3 ESE 7 13 4 7 1011.1 1009.3 36.2
07/07:00am 20.3 22.1 19.6 96 0.4 ESE 9 17 5 9 1010.9 1009.1 35.4
07/06:30am 20.5 22.9 19.7 95 0.5 SE 6 9 3 5 1010.6 1008.8 34.4
07/06:00am 20.6 22.9 19.8 95 0.5 SE 7 13 4 7 1010.0 1008.2 34.0
07/05:30am 20.5 22.4 19.7 95 0.5 ESE 9 15 5 8 1009.4 1007.6 33.8
07/05:00am 20.5 22.9 19.7 95 0.5 SE 6 9 3 5 1009.2 1007.4 33.2
07/04:30am 20.6 22.9 19.9 96 0.5 SSE 7 11 4 6 1009.0 1007.2 32.2
07/04:00am 20.6 22.2 19.9 96 0.5 SE 11 20 6 11 1008.6 1006.8 32.0
07/03:30am 20.9 23.2 20.6 98 0.2 SE 9 13 5 7 1008.5 1006.7 31.2
07/03:00am 21.0 23.7 20.7 98 0.2 SE 7 11 4 6 1008.6 1006.8 29.8
07/02:30am 21.2 23.6 20.9 98 0.2 SE 9 17 5 9 1008.5 1006.7 27.8
07/02:00am 21.5 22.9 21.0 97 0.3 SE 15 22 8 12 1008.4 1006.6 25.6
07/01:30am 21.9 24.3 21.6 98 0.2 SE 11 19 6 10 1008.4 1006.6 23.4
07/01:00am 22.1 24.3 21.8 98 0.2 SE 13 20 7 11 1008.6 1006.8 20.0
07/12:30am 22.3 24.6 22.0 98 0.2 ESE 13 19 7 10 1008.9 1007.1 18.0
07/12:00am 22.6 25.4 22.3 98 0.2 ESE 11 20 6 11 1009.2 1007.4 15.0
 
Date/Time
EST
Temp
°C
App
Temp
°C
Dew
Point
Rel
Hum
%
Delta-T
°C
Wind Press
QNH
hPa
Press
MSL
hPa
Rain
since 9 am
mm
Dir
 
Spd
km/h
Gust
km/h
Spd
kts
Gust
kts
06/11:30pm 22.8 26.1 22.5 98 0.2 ENE 9 17 5 9 1009.5 1007.7 11.8
06/11:00pm 22.8 24.5 22.3 97 0.3 ENE 17 22 9 12 1009.6 1007.8 10.0
06/10:30pm 22.9 26.6 22.6 98 0.2 E 7 11 4 6 1009.8 1008.0 9.2
06/10:00pm 22.8 26.1 22.5 98 0.2 ESE 9 13 5 7 1009.7 1007.9 8.4
06/09:30pm 22.8 26.5 22.5 98 0.2 ESE 7 13 4 7 1009.4 1007.6 7.4
06/09:00pm 22.9 26.1 22.4 97 0.3 ESE 9 15 5 8 1009.1 1007.3 6.8
06/08:30pm 22.9 26.5 22.4 97 0.3 SE 7 11 4 6 1008.8 1007.0 6.6
06/08:00pm 22.9 25.8 22.4 97 0.3 ESE 11 17 6 9 1008.6 1006.8 6.0
06/07:30pm 23.0 25.4 22.3 96 0.5 ESE 13 20 7 11 1008.2 1006.5 5.6
06/07:00pm 23.2 27.1 22.5 96 0.5 ESE 6 9 3 5 1007.7 1005.9 4.0
06/06:30pm 23.2 25.9 22.2 94 0.7 E 11 15 6 8 1007.3 1005.5 2.8
06/06:00pm 24.0 27.2 22.4 91 1.1 ESE 9 13 5 7 1006.7 1004.9 0.6
06/05:30pm 24.3 27.8 22.2 88 1.4 ESE 7 9 4 5 1006.1 1004.3 0.6
06/05:00pm 24.2 26.9 22.1 88 1.4 ESE 11 17 6 9 1005.6 1003.8 0.6
06/04:30pm 24.7 27.6 22.4 87 1.6 E 11 15 6 8 1005.7 1003.9 0.6
06/04:00pm 24.1 26.8 22.2 89 1.3 ESE 11 17 6 9 1005.9 1004.1 0.6
06/03:30pm 24.5 27.6 22.8 90 1.2 E 11 15 6 8 1006.0 1004.2 0.6
06/03:00pm 24.0 27.3 22.6 92 1.0 E 9 15 5 8 1006.2 1004.4 0.6
06/02:30pm 24.5 28.1 22.4 88 1.4 ESE 7 11 4 6 1006.4 1004.6 0.2
06/02:00pm 24.3 27.0 22.2 88 1.4 E 11 13 6 7 1006.7 1004.9 0.2
06/01:30pm 24.3 26.9 22.7 91 1.1 E 13 17 7 9 1006.9 1005.1 0.2
06/01:00pm 24.3 25.9 21.4 84 1.9 E 15 19 8 10 1007.1 1005.3 0.0
06/12:30pm 24.9 27.4 21.0 79 2.6 ENE 9 15 5 8 1007.2 1005.4 0.0
06/12:00pm 24.6 27.1 21.7 84 1.9 E 11 17 6 9 1007.5 1005.7 0.0
06/11:30am 24.2 26.4 21.1 83 2.1 ENE 11 17 6 9 1007.8 1006.1 0.0
06/11:00am 23.4 26.3 21.1 87 1.5 E 7 11 4 6 1007.9 1006.2 0.0
06/10:30am 23.1 25.8 21.4 90 1.1 E 9 15 5 8 1008.1 1006.4 0.0
06/10:00am 22.8 25.5 21.4 92 0.9 E 9 15 5 8 1008.0 1006.3 0.0
06/09:30am 22.4 24.7 21.4 94 0.7 ESE 11 19 6 10 1008.1 1006.4 0.0
06/09:00am 22.3 25.1 21.6 96 0.5 SE 9 13 5 7 1007.9 1006.2 50.0
06/08:30am 22.0 25.0 21.3 96 0.5 ESE 7 13 4 7 1007.8 1006.1 50.0
06/08:00am 21.8 24.5 21.3 97 0.3 ESE 9 13 5 7 1007.7 1005.9 50.0
06/07:30am 21.7 24.7 21.2 97 0.3 ESE 7 11 4 6 1007.6 1005.8 50.0
06/07:00am 21.5 24.5 21.2 98 0.2 ESE 7 11 4 6 1007.4 1005.6 49.8

Other Formats:

Comma delimited format used in spreadsheet applications
http://www.bom.gov.au/fwo/IDQ60801/IDQ60801.94399.axf

JavaScript Object Notation format (JSON) in row-major order
http://www.bom.gov.au/fwo/IDQ60801/IDQ60801.94399.json